Tracking 20719 objects as of 24-May-2020
HD Live streaming from Space Station
objects crossing your sky now

LES 9

Track LES 9 now!
LES 9 is classified as:


NORAD ID: 8747
Int'l Code: 1976-023B
Perigee: 35,711.2 km
Apogee: 35,873.7 km
Inclination: 18.0 °
Period: 1,436.0 minutes
Semi major axis: 42163 km
RCS: 3.1777 m2 (large)
Launch date: March 15, 1976
Source: United States (US)
Launch site: AIR FORCE EASTERN TEST RANGE (AFETR)

Original purpose was "Air Force sponsored program in space communications"; nuclear-powered; circuits jam-resistant to operate in hostile environment.
aabbcc
Your satellite tracking list
Your tracking list is empty




NASA's NSSDC Master Catalog

Two Line Element Set (TLE):
1  8747U 76023B   20144.51551833 -.00000081 +00000-0 +00000-0 0  9996
2  8747 017.9901 066.1877 0019275 110.8121 143.2892 01.00276383107454
Source of the keplerian elements: AFSPC